This is the latest recevied weather packets stored in our database for station/object DL9TK-10. If no packets are shown the sender has not sent any weather packets the latest 10 day(s).
| Time | Temp. | Humidity | Pressure | Rain* | Wind** | Luminosity | Snow |
|---|---|---|---|---|---|---|---|
| 1777712215 | 23.33° C | 33% | 1019.3 hPa | - | - | - | - |
| 1777711315 | 22.78° C | 34% | 1019.4 hPa | - | - | - | - |
| 1777710415 | 22.22° C | 35% | 1019.5 hPa | - | - | - | - |
| 1777709515 | 21.11° C | 36% | 1019.6 hPa | - | - | - | - |
| 1777708615 | 20.56° C | 37% | 1019.7 hPa | - | - | - | - |
| 1777707715 | 20° C | 38% | 1019.8 hPa | - | - | - | - |
| 1777706815 | 18.89° C | 39% | 1019.9 hPa | - | - | - | - |
| 1777705915 | 18.33° C | 39% | 1020 hPa | - | - | - | - |
| 1777705014 | 17.78° C | 40% | 1020.1 hPa | - | - | - | - |
| 1777704114 | 17.22° C | 40% | 1020.2 hPa | - | - | - | - |
| 1777703214 | 16.67° C | 41% | 1020.2 hPa | - | - | - | - |
| 1777702314 | 16.11° C | 42% | 1020.2 hPa | - | - | - | - |
| 1777701414 | 15° C | 43% | 1020.4 hPa | - | - | - | - |
| 1777700514 | 14.44° C | 43% | 1020.4 hPa | - | - | - | - |
| 1777699614 | 14.44° C | 43% | 1020.3 hPa | - | - | - | - |
| 1777698714 | 13.89° C | 42% | 1020.3 hPa | - | - | - | - |
| 1777697814 | 13.89° C | 41% | 1020.4 hPa | - | - | - | - |
| 1777696914 | 13.89° C | 41% | 1020.6 hPa | - | - | - | - |
| 1777696014 | 14.44° C | 41% | 1020.6 hPa | - | - | - | - |
| 1777695114 | 14.44° C | 41% | 1020.6 hPa | - | - | - | - |
| 1777694214 | 14.44° C | 41% | 1020.7 hPa | - | - | - | - |
| 1777693314 | 14.44° C | 40% | 1020.8 hPa | - | - | - | - |
| 1777692413 | 15° C | 40% | 1020.9 hPa | - | - | - | - |
| 1777691513 | 15° C | 40% | 1021.1 hPa | - | - | - | - |
| 1777690626 | 15° C | 39% | 1021.2 hPa | - | - | - | - |
* Rain since midnight (hover to see other rain measurements)
** Current wind speed in m/s (hover to see current wind gust speed)